Alpine, TX

1:43 AM CDT on May 23, 2018 (GMT -0500)
Alpine

Weather History for KE38 - June, 2014

Change the Weather History Date:

Friday, June 6, 2014

  Actual Average (KMRF) Record (KMRF)
Temperature  
Mean Temperature 85 °F -  
Max Temperature 99 °F 85 °F 98 °F (2014)
Min Temperature 71 °F 56 °F 51 °F (2011)
Cooling Degree Days 20    
Growing Degree Days 35 (Base 50)    
Moisture  
Dew Point 54 °F    
Average Humidity 39    
Maximum Humidity 59    
Minimum Humidity 12    
Precipitation  
Precipitation 0.00 in - - ()
Sea Level Pressure  
Sea Level Pressure 29.96 in    
Wind  
Wind Speed 12 mph (South)    
Max Wind Speed 24 mph    
Max Gust Speed 33 mph    
Visibility 10 miles    
Events      
Averages and records for this station are not official NWS values.
T = Trace of Precipitation, MM = Missing Value Source: NWS Daily Summary

Daily Weather History Graph

Daily Weather History Graph

Search for Another Location

Airport or City:

Astronomy

Jun. 06, 2014 Rise Set
Actual Time 6:52 AM CDT 8:54 PM CDT
Civil Twilight 6:25 AM CDT 9:22 PM CDT
Nautical Twilight 5:51 AM CDT 9:55 PM CDT
Astronomical Twilight 5:16 AM CDT 10:30 PM CDT
Moon 2:41 PM CDT (6/6) 2:18 AM CDT (6/6)
Length of Visible Light 14h 57m
Length of Day
14h 02m
First Quarter, 58% of the Moon is Illuminated
Jun 6
First Quarter
Jun 12
Full
Jun 19
Last Quarter
Jun 27
New
Jul 5
First Quarter

Hourly Weather History & Observations

Time (CDT) Temp. Heat Index Dew Point Humidity Pressure Visibility Wind Dir Wind Speed Gust Speed Precip Events Conditions
12:15 AM 77.9 °F - 57.7 °F 50% 30.00 in 10.0 mi SSE 4.6 mph - N/A   Clear
12:35 AM 77.9 °F - 58.1 °F 50% 30.00 in 10.0 mi South 8.1 mph - N/A   Clear
12:55 AM 77.9 °F - 58.3 °F 51% 29.98 in 10.0 mi South 15.0 mph - N/A   Clear
1:15 AM 77.2 °F - 57.6 °F 51% 29.99 in 10.0 mi South 13.8 mph - N/A   Clear
1:35 AM 77.4 °F - 57.4 °F 50% 29.98 in 10.0 mi SSW 12.7 mph - N/A   Clear
1:55 AM 76.5 °F - 58.3 °F 53% 29.98 in 10.0 mi South 15.0 mph 18.4 mph N/A   Clear
2:15 AM 75.7 °F - 58.3 °F 55% 29.98 in 10.0 mi South 10.4 mph - N/A   Clear
2:35 AM 75.0 °F - 57.6 °F 54% 29.98 in 10.0 mi South 5.8 mph - N/A   Clear
2:55 AM 74.7 °F - 58.1 °F 56% 29.98 in 10.0 mi South 10.4 mph - N/A   Clear
3:15 AM 74.3 °F - 58.1 °F 57% 29.97 in 10.0 mi SSW 15.0 mph - N/A   Clear
3:35 AM 74.3 °F - 58.1 °F 57% 29.97 in 10.0 mi SSW 11.5 mph - N/A   Clear
3:55 AM 74.7 °F - 58.3 °F 57% 29.97 in 10.0 mi South 15.0 mph - N/A   Clear
4:15 AM 73.9 °F - 58.3 °F 58% 29.96 in 10.0 mi South 13.8 mph - N/A   Clear
4:35 AM 73.6 °F - 57.9 °F 58% 29.96 in 10.0 mi South 11.5 mph - N/A   Clear
4:55 AM 73.8 °F - 57.4 °F 56% 29.96 in 10.0 mi SSE 12.7 mph - N/A   Clear
5:15 AM 73.4 °F - 57.2 °F 57% 29.96 in 10.0 mi SW 4.6 mph - N/A   Clear
5:35 AM 73.2 °F - 57.0 °F 57% 29.97 in 10.0 mi Calm Calm - N/A   Clear
5:55 AM 71.6 °F - 56.5 °F 59% 29.97 in 10.0 mi WSW 5.8 mph - N/A   Clear
6:15 AM 72.0 °F - 56.3 °F 58% 29.97 in 10.0 mi WSW 8.1 mph - N/A   Clear
6:35 AM 72.5 °F - 55.4 °F 55% 29.97 in 10.0 mi WSW 5.8 mph - N/A   Clear
6:55 AM 72.5 °F - 54.7 °F 53% 29.98 in 10.0 mi South 4.6 mph - N/A   Clear
7:15 AM 73.6 °F - 54.7 °F 51% 29.99 in 10.0 mi WSW 6.9 mph - N/A   Clear
7:35 AM 75.4 °F - 55.0 °F 49% 29.99 in 10.0 mi SW 9.2 mph - N/A   Clear
7:55 AM 77.5 °F - 53.8 °F 44% 30.00 in 10.0 mi SW 10.4 mph 19.6 mph N/A   Clear
8:15 AM 79.2 °F - 53.6 °F 41% 30.00 in 10.0 mi SSW 10.4 mph - N/A   Clear
8:35 AM 80.1 °F 80.1 °F 54.3 °F 41% 30.00 in 10.0 mi SW 15.0 mph - N/A   Clear
8:55 AM 79.5 °F - 55.8 °F 44% 30.01 in 10.0 mi SW 16.1 mph - N/A   Clear
9:15 AM 81.5 °F 81.1 °F 55.9 °F 41% 30.01 in 10.0 mi SW 12.7 mph 17.3 mph N/A   Clear
9:35 AM 82.9 °F 82.3 °F 56.1 °F 40% 30.02 in 10.0 mi SW 12.7 mph - N/A   Clear
9:55 AM 85.1 °F 83.9 °F 55.9 °F 37% 30.01 in 10.0 mi SW 12.7 mph 16.1 mph N/A   Clear
10:15 AM 87.1 °F 85.3 °F 54.3 °F 33% 30.01 in 10.0 mi South 11.5 mph - N/A   Clear
10:35 AM 88.0 °F 85.7 °F 53.1 °F 30% 30.01 in 10.0 mi SSW 12.7 mph 18.4 mph N/A   Clear
10:55 AM 89.1 °F - 52.5 °F 29% 30.00 in 10.0 mi SW 13.8 mph 19.6 mph N/A   Clear
11:15 AM 90.5 °F - 50.7 °F 26% 30.00 in 10.0 mi SSW 12.7 mph 18.4 mph N/A   Scattered Clouds
11:35 AM 91.0 °F - 50.4 °F 25% 30.00 in 10.0 mi South 12.7 mph - N/A   Clear
11:55 AM 91.8 °F - 51.3 °F 25% 30.00 in 10.0 mi South 13.8 mph 19.6 mph N/A   Clear
12:15 PM 92.8 °F - 49.5 °F 23% 30.00 in 10.0 mi SW 10.4 mph 20.7 mph N/A   Clear
12:35 PM 93.7 °F - 48.6 °F 21% 30.00 in 10.0 mi South 8.1 mph 19.6 mph N/A   Clear
12:55 PM 94.6 °F - 47.5 °F 20% 29.99 in 10.0 mi South 10.4 mph 16.1 mph N/A   Clear
1:15 PM 95.0 °F - 46.9 °F 19% 29.99 in 10.0 mi SSE 4.6 mph - N/A   Clear
1:35 PM 95.4 °F - 44.8 °F 18% 29.99 in 10.0 mi WSW 6.9 mph - N/A   Clear
1:55 PM 95.5 °F - 43.7 °F 17% 29.98 in 10.0 mi SSE 6.9 mph - N/A   Clear
2:15 PM 96.4 °F - 43.9 °F 16% 29.97 in 10.0 mi South 5.8 mph - N/A   Clear
2:35 PM 97.7 °F - 43.5 °F 16% 29.96 in 10.0 mi South 10.4 mph 16.1 mph N/A   Clear
2:55 PM 97.0 °F - 45.3 °F 17% 29.96 in 10.0 mi ESE 11.5 mph 19.6 mph N/A   Clear
3:15 PM 99.1 °F - 44.6 °F 16% 29.95 in 10.0 mi South 10.4 mph 21.9 mph N/A   Clear
3:35 PM 98.2 °F - 44.1 °F 16% 29.95 in 10.0 mi SSW 9.2 mph 18.4 mph N/A   Clear
3:55 PM 98.4 °F - 42.6 °F 15% 29.94 in 10.0 mi SSE 13.8 mph 24.2 mph N/A   Clear
4:15 PM 99.5 °F - 40.8 °F 13% 29.93 in 10.0 mi SSE 16.1 mph 27.6 mph N/A   Clear
4:35 PM 98.8 °F - 37.9 °F 12% 29.93 in 10.0 mi SE 13.8 mph 25.3 mph N/A   Clear
4:55 PM 98.4 °F - 43.3 °F 15% 29.92 in 10.0 mi South 12.7 mph - N/A   Clear
5:15 PM 98.1 °F - 48.2 °F 18% 29.91 in 10.0 mi South 18.4 mph 28.8 mph N/A   Scattered Clouds
5:35 PM 96.4 °F - 50.0 °F 21% 29.91 in 10.0 mi SE 18.4 mph 24.2 mph N/A   Scattered Clouds
5:55 PM 95.4 °F - 52.0 °F 23% 29.90 in 10.0 mi SE 18.4 mph 28.8 mph N/A   Scattered Clouds
6:15 PM 95.7 °F 93.4 °F 53.8 °F 24% 29.90 in 10.0 mi SE 18.4 mph 26.5 mph N/A   Clear
6:35 PM 94.3 °F 92.1 °F 54.9 °F 26% 29.90 in 10.0 mi SSE 21.9 mph 28.8 mph N/A   Clear
6:55 PM 92.5 °F 91.0 °F 56.5 °F 30% 29.90 in 10.0 mi SE 21.9 mph 29.9 mph N/A   Clear
7:15 PM 91.4 °F 89.9 °F 57.2 °F 31% 29.91 in 10.0 mi SE 19.6 mph 28.8 mph N/A   Clear
7:35 PM 89.6 °F 88.4 °F 57.7 °F 34% 29.91 in 10.0 mi SE 21.9 mph 32.2 mph N/A   Clear
7:55 PM 88.0 °F 86.9 °F 58.1 °F 36% 29.91 in 10.0 mi SSE 20.7 mph 28.8 mph N/A   Clear
8:15 PM 86.2 °F 85.4 °F 58.8 °F 39% 29.91 in 10.0 mi SE 23.0 mph 28.8 mph N/A   Clear
8:35 PM 84.2 °F 83.8 °F 58.6 °F 42% 29.91 in 10.0 mi SE 19.6 mph 29.9 mph N/A   Clear
8:55 PM 82.4 °F 82.5 °F 59.0 °F 45% 29.91 in 10.0 mi SE 20.7 mph 33.4 mph N/A   Clear
9:15 PM 81.0 °F 81.3 °F 59.2 °F 47% 29.91 in 10.0 mi SE 21.9 mph 33.4 mph N/A   Clear
9:35 PM 80.4 °F 81.1 °F 59.4 °F 49% 29.90 in 10.0 mi SSE 24.2 mph 29.9 mph N/A   Clear
9:55 PM 79.7 °F - 59.5 °F 50% 29.91 in 10.0 mi SSE 23.0 mph 32.2 mph N/A   Clear
10:15 PM 78.8 °F - 59.9 °F 52% 29.92 in 10.0 mi SSE 19.6 mph 32.2 mph N/A   Clear
10:35 PM 78.4 °F - 59.9 °F 53% 29.93 in 10.0 mi SE 18.4 mph 28.8 mph N/A   Clear
10:55 PM 78.3 °F - 59.4 °F 52% 29.93 in 10.0 mi SSE 17.3 mph 26.5 mph N/A   Clear
11:15 PM 78.3 °F - 58.8 °F 51% 29.94 in 10.0 mi SSE 19.6 mph 25.3 mph N/A   Clear
11:35 PM 78.8 °F - 57.7 °F 48% 29.95 in 10.0 mi SSE 18.4 mph 26.5 mph N/A   Clear
11:55 PM 79.2 °F - 56.3 °F 45% 29.95 in 10.0 mi South 18.4 mph 27.6 mph N/A   Clear